EW2821 Weather Reports


Display with metric or nautical units.
time (UTC)temp
F
wind
direction
speed
MPH
gust
MPH
rain 1hr
in
rain 24hr
in
rain mn
in
humidity
%
barometer
mb
20260508093011 49 226 1.0 6.0 0.00 0.01 0.00 71 1012.9
20260508091522 49 199 3.0 6.0 0.00 0.01 0.00 70 1012.9
20260508090014 48 249 3.0 7.0 0.00 0.01 0.00 70 1013.1
20260508084508 48 236 1.0 4.0 0.00 0.01 0.00 70 1013.2
20260508083016 48 205 3.0 6.0 0.00 0.01 0.00 71 1013.1
20260508081509 48 228 0.0 5.0 0.00 0.01 0.00 68 1013.2
20260508080006 48 260 0.0 6.0 0.00 0.01 0.00 69 1013.2
20260508074505 48 253 1.0 7.0 0.00 0.01 0.00 71 1013.1
20260508073001 47 214 2.0 7.0 0.00 0.01 0.00 72 1013.1
20260508071600 47 207 2.0 7.0 0.00 0.01 0.00 73 1013.2
20260508070101 47 229 2.0 6.0 0.00 0.01 0.00 72 1013.4
20260508064557 47 224 2.0 7.0 0.00 0.01 0.00 73 1013.4
20260508063138 47 220 2.0 6.0 0.00 0.01 0.00 73 1013.5
20260508061556 47 199 3.0 6.0 0.00 0.01 0.00 73 1013.5
20260508060057 47 211 3.0 5.0 0.00 0.01 0.00 73 1013.6
20260508054555 47 208 2.0 7.0 0.00 0.01 0.00 73 1013.5
20260508053100 47 229 2.0 4.0 0.00 0.01 0.00 74 1013.6
20260508051617 47 225 2.0 7.0 0.00 0.01 0.00 74 1013.7
20260508050055 47 212 1.0 6.0 0.00 0.01 0.00 74 1013.7
20260508044550 47 222 4.0 8.0 0.00 0.01 0.00 75 1013.7
20260508043048 46 197 4.0 7.0 0.00 0.01 0.00 78 1013.6
20260508041546 46 205 2.0 6.0 0.00 0.01 0.00 77 1013.6
20260508040042 47 190 3.0 7.0 0.00 0.01 0.00 77 1013.5
20260508034542 46 209 2.0 6.0 0.00 0.01 0.01 78 1013.5
20260508033048 46 212 3.0 6.0 0.00 0.01 0.01 80 1013.5
20260508031541 45 197 1.0 7.0 0.00 0.01 0.01 81 1013.6
20260508030045 45 177 2.0 4.0 0.00 0.01 0.01 80 1013.4
20260508024540 46 195 0.0 1.0 0.00 0.01 0.01 80 1013.5
20260508023040 46 195 0.0 4.0 0.00 0.01 0.01 78 1013.5
20260508021548 47 245 1.0 4.0 0.00 0.01 0.01 76 1013.4
20260508020039 48 292 0.0 2.0 0.00 0.01 0.01 75 1013.6
20260508014538 49 292 0.0 2.0 0.00 0.01 0.01 74 1013.3
20260508013038 49 293 0.0 2.0 0.00 0.01 0.01 71 1013.4
20260508011546 50 293 0.0 2.0 0.00 0.01 0.01 68 1013.2
20260508010053 51 293 1.0 3.0 0.00 0.01 0.01 65 1013.3
20260508004536 52 291 5.0 9.0 0.00 0.01 0.01 63 1013.4
20260508003036 53 265 4.0 8.0 0.00 0.01 0.01 58 1013.5
20260508001535 54 295 6.0 12.0 0.00 0.01 0.01 55 1013.4
20260508000043 54 262 8.0 15.0 0.00 0.01 0.01 52 1013.5
20260507234534 55 284 8.0 14.0 0.00 0.01 0.01 51 1013.4
20260507233039 55 353 6.0 16.0 0.00 0.01 0.01 51 1013.5
20260507231532 56 253 2.0 7.0 0.00 0.01 0.01 49 1013.1
20260507230047 56 243 2.0 10.0 0.00 0.01 0.01 46 1013.1
20260507224535 57 253 3.0 13.0 0.00 0.01 0.01 48 1013.2
20260507223105 58 205 5.0 12.0 0.00 0.01 0.01 45 1013.2
20260507221531 56 218 3.0 9.0 0.00 0.01 0.01 49 1013.2
20260507220028 56 277 4.0 11.0 0.00 0.01 0.01 48 1013.2
20260507214527 58 272 6.0 12.0 0.00 0.01 0.01 43 1013.3
20260507213027 58 245 4.0 14.0 0.00 0.01 0.01 48 1013.2
20260507211524 57 311 4.0 15.0 0.00 0.01 0.01 50 1013.2
20260507210024 57 304 4.0 9.0 0.00 0.01 0.01 47 1013.4
20260507204520 57 299 8.0 15.0 0.00 0.01 0.01 49 1013.6
20260507203030 57 298 7.0 14.0 0.00 0.01 0.01 52 1013.7
20260507201516 56 314 11.0 20.0 0.00 0.01 0.01 49 1013.8
20260507200031 56 262 10.0 18.0 0.00 0.01 0.01 49 1013.9
20260507194516 56 233 6.0 15.0 0.00 0.01 0.01 53 1014.0
20260507193034 56 289 8.0 13.0 0.00 0.01 0.01 51 1014.1
20260507191511 56 283 12.0 19.0 0.00 0.01 0.01 53 1014.2
20260507190008 54 292 8.0 16.0 0.00 0.01 0.01 50 1014.2
20260507184511 55 322 12.0 19.0 0.00 0.01 0.01 47 1014.3
20260507183007 55 305 7.0 17.0 0.00 0.01 0.01 54 1014.4
20260507181503 55 302 9.0 19.0 0.00 0.01 0.01 50 1014.6
20260507180006 55 328 8.0 17.0 0.00 0.01 0.01 52 1014.5
20260507174504 55 320 9.0 15.0 0.00 0.01 0.01 55 1014.7
20260507173101 54 341 11.0 17.0 0.00 0.01 0.01 51 1015.0
20260507171604 54 311 8.0 18.0 0.00 0.01 0.01 56 1015.1
20260507170056 53 305 11.0 18.0 0.00 0.01 0.01 55 1015.3
20260507164553 53 348 9.0 20.0 0.00 0.01 0.01 53 1015.3
20260507163051 53 305 8.0 17.0 0.00 0.01 0.01 54 1015.4
20260507161554 52 290 10.0 17.0 0.00 0.01 0.01 55 1015.4
20260507160046 52 289 9.0 15.0 0.00 0.01 0.01 57 1015.5
20260507154544 51 326 11.0 16.0 0.00 0.01 0.01 59 1015.5
20260507153042 50 266 12.0 18.0 0.00 0.01 0.01 56 1015.5
20260507151536 50 334 7.0 15.0 0.00 0.01 0.01 61 1015.4
20260507150032 49 307 11.0 16.0 0.00 0.01 0.01 58 1015.4
20260507144530 49 305 10.0 17.0 0.00 0.01 0.01 61 1015.5
20260507143023 48 314 10.0 16.0 0.00 0.01 0.01 61 1015.5
20260507141518 48 322 11.0 16.0 0.00 0.01 0.01 61 1015.6
20260507140014 47 278 9.0 14.0 0.00 0.01 0.01 61 1015.4
20260507134510 46 284 4.0 11.0 0.00 0.01 0.01 68 1015.5
20260507133005 46 278 4.0 9.0 0.00 0.01 0.01 72 1015.4
20260507131502 45 285 6.0 9.0 0.00 0.01 0.01 75 1015.5
20260507130108 43 284 3.0 8.0 0.00 0.01 0.01 82 1015.4
20260507124615 41 278 3.0 6.0 0.01 0.01 0.01 89 1015.3
20260507123105 39 260 2.0 4.0 0.01 0.01 0.01 94 1015.3
20260507121556 37 244 0.0 2.0 0.01 0.01 0.01 96 1015.3
20260507120043 35 244 0.0 0.0 0.01 0.01 0.01 96 1015.2
20260507114541 34 244 0.0 0.0 0.00 0.00 0.00 95 1015.2
20260507113040 33 244 0.0 0.0 0.00 0.00 0.00 95 1015.2
20260507111538 32 244 0.0 0.0 0.00 0.00 0.00 95 1015.1
20260507110034 32 247 0.0 1.0 0.00 0.00 0.00 95 1015.0
20260507104532 32 268 0.0 0.0 0.00 0.00 0.00 95 1014.8
20260507103032 32 284 0.0 0.0 0.00 0.00 0.00 95 1014.8
20260507101539 32 285 0.0 0.0 0.00 0.00 0.00 95 1014.8
20260507100044 33 288 0.0 0.0 0.00 0.00 0.00 95 1014.8
20260507094527 33 288 0.0 0.0 0.00 0.00 0.00 94 1014.7